Regional Weather Roundup
Issued by NWS Green Bay, WI

Home | Current Version | Previous Version | Text Only | Print | Product List | Glossary On
Versions: 1 2 3 4 5 6 7 8 9 10 11 12 13 14 15 16 17 18 19 20 21 22 23 24 25 26 27 28 29 30 31 32 33 34 35 36 37 38 39 40 41 42 43 44 45 46 47 48 49 50
000
ASUS43 KGRB 242010
RWRGRB

NORTH-CENTRAL AND NORTHEAST WISCONSIN REGIONAL WEATHER ROUNDUP
NATIONAL WEATHER SERVICE GREEN BAY WI
200 PM CST WED DEC 24 2014

WIZ005-009-010>012-018-019-242100-
NORTH CENTRAL WISCONSIN

CITY           SKY/WX    TMP DP  RH WIND       PRES   REMARKS
IRONWOOD       CLOUDY    30  30 100 N5        29.53F
MANITOWISH WTR CLOUDY    31  29  93 N6        29.52F
ARBOR VITAE    CLOUDY    32  29  90 N5        29.51F
EAGLE RIVER    CLOUDY    31  30  94 N5        29.50F
LAND O LAKES   CLOUDY    31  29  92 N7        29.51F
RHINELANDER    CLOUDY    31  28  89 VRB6      29.51F
PHILLIPS       CLOUDY    32  29  88 N3        29.53F
ANTIGO         CLOUDY    32  30  94 N9        29.49F
TOMAHAWK       CLOUDY    31  29  90 CALM      29.53F
MERRILL        CLOUDY    32  31  93 N8        29.52F
$$

WIZ013-073-242100-
NORTHEAST WISCONSIN

CITY           SKY/WX    TMP DP  RH WIND       PRES   REMARKS
IRON MOUNTAIN  CLOUDY    33  29  85 N9        29.48F
MARINETTE      CLOUDY    36  34  93 N8        29.48F
OCONTO         CLOUDY    34  34 100 N6        29.48F VSB 1
$$

WIZ017-030-035>037-045-242100-
CENTRAL WISCONSIN

CITY           SKY/WX    TMP DP  RH WIND       PRES   REMARKS
MEDFORD        CLOUDY    32  29  88 N8        29.53F
WAUSAU         CLOUDY    34  30  85 NW7       29.50F
MOSINEE        CLOUDY    34  34 100 NW8       29.52F
MARSHFIELD     CLOUDY    35  30  82 N8        29.52F
WISC RAPIDS    CLOUDY    35  31  85 NW7       29.53F
STEVENS POINT  CLOUDY    32  31  96 N5        29.51F
WAUPACA        CLOUDY    36  35  96 NW3       29.50F FOG
SHAWANO        CLOUDY    36  35  96 N6        29.50F
CLINTONVILLE   DRIZZLE   34  34 100 N5        29.49F
$$

WIZ038-039-048-051-242100-
FOX VALLEY

CITY           SKY/WX    TMP DP  RH WIND       PRES   REMARKS
NWS GREEN BAY  CLOUDY    35  34  96 N9        29.48F
APPLETON       DRZL/FOG  34  34 100 N9        29.48F VSB 1/2
OSHKOSH        CLOUDY    35  33  92 N10       29.47F
FOND DU LAC    CLOUDY    35  33  92 N7        29.48S FOG
$$

WIZ022-050-052-242100-
EAST CENTRAL WISCONSIN

CITY           SKY/WX    TMP DP  RH WIND       PRES   REMARKS
STURGEON BAY   CLOUDY    36  32  87 N9        29.48F VSB 3/4
MANITOWOC      CLOUDY    37  36  96 NW6       29.48F
SHEBOYGAN      CLOUDY    38  35  89 NW8       29.47F
$$

LMZ563-521-522-541>543-242100-
LAKESHORE

STATION/POSITION TIME  TEMP    WIND        PRES    VSBY  WAVE
                       AIR SEA DIR/SP/G                  HT/PER
                 (UTC) (F)     (DEG/KT/KT) (MB)    (MI)  (FT/S)
SHEBOYGAN LKSHOR 2000   38 37  340/  8/  9  998.5F
KEWAUNEE LKSHORE 2000   37     350/  5/  7  997.4F
ALGOMA MARINA    2000          350/ 10/ 12   N/A
NORTHPORT PIER   2000   35     340/  9/ 11  998.3F
SISTER BAY LKSHO 2000           20/  9/ 12   N/A
STURGEON BAY CG  1900   37     310/  4     1001.6    5/8   1
CHAMBERS ISLAND  2000   34     320/  8/  9  999.0F
MENOMINEE LKSHOR 2000   35     320/ 10/ 11  999.3F
$$


USA.gov is the U.S. government's official web portal to all federal, state and local government web resources and services.